PILOTS ONLINE: 148    ATC ONLINE: 16

KGEU

Glendale Municipal Airport

Location

City Glendale
Country  United States
Latitude 33° 31' 36" N
Longitude 112° 17' 41" W
Elevation 1071 ft
Type Small Airport

Map

Weather

METAR
2014/09/22 01:47
KGEU 220147Z 02003KT 20SM FEW080 FEW150 34/12 A2986 RMK LAST
TAF
No TAF available

Runways

01/19 7099 ft / 100 ft

Outbound flights

Callsign Flying to Pilot ATD/STD ETA Aircraft

Inbound flights

Callsign Flying from Pilot ATD ETA Aircraft